Regional Weather Roundup
Issued by NWS Bismarck, ND

Home | Current Version | Previous Version | Text Only | Print | Product List | Glossary On
Versions: 1 2 3 4 5 6 7 8 9 10 11 12 13 14 15 16 17 18 19 20 21 22 23 24 25 26 27 28 29 30 31 32 33 34 35 36 37 38 39 40 41 42 43 44 45 46 47 48 49 50
000
ASUS43 KBIS 291810
RWRBIS

NWR BROADCAST TEXT
NATIONAL WEATHER SERVICE BISMARCK ND
100 PM CDT SAT APR 29 2017

NOTE: "FAIR" INDICATES FEW OR NO CLOUDS BELOW 12,000 FEET WITH NO
SIGNIFICANT WEATHER AND/OR OBSTRUCTIONS TO VISIBILITY.


CITY           SKY/WX    TMP DP  RH WIND       PRES   REMARKS
WILLISTON      FAIR      59  31  34 VRB3      30.25F
MINOT          FAIR      62  24  23 SW16G24   30.23S
MINOT AFB      FAIR      62  26  24 W13       30.21F
BISMARCK       FAIR      61  19  19 CALM      30.29F
DICKINSON      FAIR      57  17  21 S8G17     30.23F
GARRISON         N/A     59  21  23 S13G20    30.25F
HETTINGER ARPT FAIR      54  20  26 S7        30.28F
JAMESTOWN      FAIR      55  16  21 W6        30.30F
HAZEN          FAIR      61  21  21 S10G17    30.28S
LINTON         FAIR      57  21  24 W7        30.29F
MANDAN         FAIR      55  14  19 VRB5      30.28F
STANLEY        FAIR      57  30  35 SW14      30.25F
TIOGA          FAIR      55  28  35 VRB5G14   30.24F
WATFORD CITY   MOCLDY    55  32  41 VRB5G15   30.24S
$$

CITY           SKY/WX    TMP DP  RH WIND       PRES   REMARKS
GRAND FORKS    FAIR      56  23  27 S3        30.33S
GRAND FORKS AF FAIR      55  22  28 S6        30.33S
DEVILS LAKE    FAIR      56  17  21 SW7       30.31S
FARGO          FAIR      55  18  23 VRB3      30.32F
CAVALIER       FAIR      55  25  30 S12G17    30.31S
GRAFTON        FAIR      54  23  30 S8        30.35F
GWINNER        CLEAR     54  14  20 MISG      30.31F
LANGDON        FAIR      59  19  21 S13       30.30R
ROLLA          FAIR      57  21  24 S14       30.26S
$$

CITY           SKY/WX    TMP DP  RH WIND       PRES   REMARKS
ABERDEEN       FAIR      54  15  21 VRB6      30.29F
MOBRIDGE       FAIR      58  15  18 W5        30.24F
BUFFALO          N/A     52  17  25 MISG      30.20F
RAPID CITY     FAIR      51  19  28 NE8       30.26F
GLASGOW        FAIR      56  29  35 S12G17    30.23F
SIDNEY         FAIR      56  34  43 SW5       30.25F
WOLF POINT     FAIR      58  32  37 W8        30.24F
GLENDIVE       CLOUDY    56  32  40 SW8       30.25F
MILES CITY     FAIR      57  32  38 SW14      30.25F
BAKER          PTSUNNY   54  25  32 NW6       30.26F
$$

CITY           SKY/WX    TMP DP  RH WIND       PRES   REMARKS
BILLINGS       FAIR      47  32  56 VRB5      30.25F
GREAT FALLS    PTSUNNY   52  29  41 SW9       30.18S
REGINA         MOSUNNY   52  30  43 W12G18    30.20S
ESTEVAN        PTSUNNY   54  30  40 W9        30.23F
$$





USA.gov is the U.S. government's official web portal to all federal, state and local government web resources and services.